Notices

What's New in latest Release from April 7th, 2021:

- Updated Glossary, including Speed of Maximum Gust, and Total Hourly Precipitation

- Updated national and regional climate services offices contacts and prices information

- Addition of station inventory lists for 1981-2010, 1971-2000, and 1961-1990 Normals.

If you haven't already, please take our survey and provide feedback about our website: https://eccc.sondage-survey.ca/f/LanguageSelection.aspx?s=442ca660-fcf1-47c0-95a9-59707d6fd709

Hourly Data Report for November 20, 2019

QUALICUM BEACH AIRPORT
BRITISH COLUMBIA
Current Station Operator: ECCC - MSC

49°20'14.000" N
124°23'38.000" W
58.20 m
1026562
71766
VOQ

Download Data

Hourly Data (November 2019)
Hourly Data Report for November 20, 2019
TIME
LST
Temp Definition
°C
Dew Point Definition
°C
Rel Hum Definition
%
Precip. Amount Definition
mm

Wind Dir Definition
10's deg

Wind Spd Definition
km/h
Visibility Definition
km
Stn Press Definition
kPa
Hmdx Definition


Wind Chill Definition


Weather Definition


00:00 2.7 1.8 93 LegendMM 24 3   101.51     LegendNANA
01:00 2.2 1.5 95 LegendMM 24 4   101.56     LegendNANA
02:00 2.0 1.4 96 LegendMM 24 3   101.60     LegendNANA
03:00 1.6 1.1 96 LegendMM 24 4   101.61     LegendNANA
04:00 0.3 -0.1 97 LegendMM 22 1   101.60     LegendNANA
05:00 0.2 -0.1 98 LegendMM 24 3   101.63     LegendNANA
06:00 0.1 -0.1 99 LegendMM 25 3   101.67     LegendNANA
07:00 -0.6 -0.8 98 LegendMM 23 2   101.68   -1 LegendNANA
08:00 0.2 0.0 99 LegendMM 27 3   101.71     LegendNANA
09:00 1.9 1.5 98 LegendMM 26 1   101.70     LegendNANA
10:00 5.4 3.3 87 LegendMM 27 2   101.71     LegendNANA
11:00 7.7 4.3 79 LegendMM 32 9   101.68     LegendNANA
12:00 8.5 3.7 71 LegendMM 31 6   101.59     LegendNANA
13:00 8.6 3.3 69 LegendMM 30 6   101.53     LegendNANA
14:00 8.9 4.0 71 LegendMM 1 4   101.45     LegendNANA
15:00
16:00 6.5 4.2 85 LegendMM 30 3   101.38     LegendNANA
17:00 4.1 3.2 94 LegendMM 24 2   101.36     LegendNANA
18:00 3.2 2.7 96 LegendMM 27 1   101.33     LegendNANA
19:00 2.2 1.8 97 LegendMM   0   101.29     LegendNANA
20:00 1.4 1.1 98 LegendMM 26 2   101.28     LegendNANA
21:00 0.8 0.6 98 LegendMM 24 2   101.28     LegendNANA
22:00 0.1 -0.1 99 LegendMM 24 2   101.22     LegendNANA
23:00 -0.2 -0.4 99 LegendMM 26 2   101.19   -1 LegendNANA

Notes on Data Quality.

Legend

  • E = Estimated
  • M = Missing
  • NA = Not Available*
  • [empty] = Indicates an unobserved value
Date modified: